Temp
14 13 13 16 16 17 16 16 17 18 18 17 17 18 19 20 20 20 21 21 22 23 23 22 23 23 23 23 22 21 21 19 17 16 14 14 14 15 15 15 15 15 15 14
13 12 16 15 15 15 15 15 16 17 17 16 17 18 19 19 19 20 21 21 22 22 23 23 22 23 22 23 21 21 20 17 16 14 15 15 14 13 13 14 14 14 14 13
14 14 14 13 14 14 15 15 15 15 16 16 16 17 20 21 21 21 20 21 21 22 22 23 24 23 22 22 21 20 19 16 16 14 15 14 12 11 11 12 13 13 13 12
14 15 13 13 13 14 14 16 15 14 14 15 15 16 20 21 20 20 21 21 21 21 22 22 23 23 23 22 20 19 17 17 15 14 14 13 15 13 11 11 11 11 11 11
14 12 12 11 13 14 14 14 14 14 14 14 15 12 18 19 19 19 21 22 22 22 22 22 22 22 23 21 19 18 15 16 15 13 14 15 15 15 11 11 10 10 10 9
14 13 13 14 14 14 14 13 13 13 13 12 15 15 17 19 20 21 20 21 22 22 22 21 21 21 21 21 18 16 15 16 14 13 14 16 14 11 9 9 9 9 9 9
12 13 13 13 12 13 13 12 13 12 12 14 17 16 16 19 19 20 21 22 22 22 22 22 21 21 20 18 17 16 16 15 14 14 14 14 11 11 11 10 10 10 9 8
12 13 13 13 12 14 12 13 14 14 15 16 17 14 17 20 20 20 20 21 21 21 22 22 21 20 19 17 17 16 16 15 14 13 13 12 11 11 11 11 11 11 10 9
11 11 12 12 13 13 12 10 14 12 13 11 15 16 18 19 18 19 20 20 20 20 20 21 21 19 19 17 17 17 17 16 14 14 12 10 11 12 12 11 11 10 9 7
13 12 13 13 12 12 12 13 11 11 11 13 15 15 17 18 19 20 19 19 19 20 19 20 20 19 18 17 16 16 16 16 14 11 10 11 11 11 10 10 9 8 8 7
13 12 12 11 11 13 11 10 10 12 12 13 14 17 19 18 18 18 18 18 18 18 18 18 19 18 17 16 16 16 15 14 11 10 10 9 9 9 10 9 8 8 7 6
13 12 11 12 15 14 15 13 13 11 11 11 13 15 19 18 19 17 18 18 18 17 17 17 18 17 16 16 16 15 13 12 10 10 9 9 9 10 9 8 7 7 6 6
13 10 11 13 13 13 12 13 13 10 10 11 12 15 17 17 18 18 18 18 18 17 16 15 15 15 16 15 14 12 11 9 9 10 10 10 9 9 8 7 6 6 5 5
13 13 11 14 14 14 11 12 11 10 11 13 14 15 16 17 17 17 17 17 17 17 14 14 14 15 15 14 13 9 8 8 9 10 10 9 9 8 7 6 5 5 4 4
13 10 11 12 12 12 11 11 11 10 12 12 15 15 17 17 17 17 16 16 16 15 13 13 14 14 14 13 9 7 7 7 9 9 9 8 7 6 5 5 4 4 4 3
12 11 10 10 12 12 11 11 11 11 11 13 14 14 16 16 16 15 14 13 14 14 13 12 12 13 12 10 8 7 7 8 8 8 7 6 5 5 4 4 3 3 3 2
11 10 10 12 14 14 12 12 11 11 11 13 12 15 16 15 13 12 12 14 14 14 13 12 12 12 11 10 8 8 7 8 8 7 6 5 5 4 4 3 3 3 2 2
11 10 10 11 12 14 15 12 12 12 12 13 14 14 14 12 11 11 13 13 13 14 12 12 11 11 10 9 9 8 8 7 6 6 5 4 4 3 3 3 3 2 2 2
13 12 11 12 13 15 16 14 13 13 15 15 14 15 14 13 12 14 10 10 11 13 13 12 10 9 9 8 7 7 7 6 6 5 4 4 3 3 3 2 2 1 1 1
12 12 11 12 13 15 17 15 13 14 16 15 13 15 14 13 11 15 9 9 12 11 11 9 8 8 8 7 7 6 6 6 5 4 3 3 3 3 2 2 1 -0 0 -0
11 10 11 12 13 16 16 14 14 16 16 14 13 15 15 14 13 9 8 7 8 9 9 8 8 8 7 7 7 6 6 4 3 3 3 2 2 2 1 0 -0 -0 -1 -1
15 13 12 14 14 15 15 14 16 16 14 13 13 12 12 11 8 7 7 7 6 6 7 8 7 6 6 6 6 5 3 2 2 2 1 1 1 -0 -0 -0 -1 -1 -1 -1
14 15 16 16 17 16 15 16 15 13 13 13 12 12 10 8 7 6 6 6 6 6 6 5 5 5 5 5 4 3 2 2 1 1 0 -0 -1 -1 -1 -0 -1 -1 -1 -1
14 14 15 15 17 16 16 15 13 11 11 10 10 11 10 9 7 6 6 5 5 5 5 5 5 4 4 4 3 2 1 1 1 0 -0 -1 -1 -1 -1 -2 -2 -2 -2 -2
15 13 15 15 16 16 15 14 12 10 9 9 9 10 9 8 7 6 5 5 5 5 4 4 3 3 2 2 1 1 1 1 0 -0 -0 -1 -1 -1 -2 -2 -3 -2 -3 -3
14 16 17 18 16 16 15 11 10 10 9 9 8 7 7 7 6 6 5 5 4 3 3 2 2 2 1 1 0 -0 0 0 0 -0 -0 -1 -1 -2 -2 -2 -2 -3 -4 -5
Height
787 788 785 776 778 775 779 779 775 770 769 773 762 750 747 744 742 741 739 735 732 729 731 733 732 733 734 735 736 737 741 746 751 754 759 764 766 771 776 780 784 788 791 794
789 786 775 780 781 783 783 779 774 769 769 772 760 738 740 739 732 730 729 725 723 722 723 724 726 726 728 729 731 733 736 741 746 750 755 758 764 770 774 777 784 788 791 794
774 776 778 783 783 784 779 778 775 776 770 768 765 734 718 712 713 716 718 718 715 714 714 714 715 717 721 722 725 728 731 736 742 747 752 758 762 768 773 778 783 788 792 794
775 771 782 783 781 779 777 772 776 779 779 772 767 743 717 711 711 711 710 708 707 705 705 706 705 707 710 715 718 723 726 730 736 742 747 750 749 759 770 775 782 788 792 794
771 779 782 784 779 779 776 776 776 775 774 774 762 780 718 716 715 710 703 700 697 696 695 696 697 699 702 707 712 717 722 726 729 736 743 749 753 759 766 774 781 786 792 794
769 777 775 771 774 776 776 778 778 776 777 775 744 753 724 708 700 697 698 693 690 689 688 690 692 693 695 701 707 712 718 722 727 731 739 745 748 754 762 773 779 786 791 794
770 769 771 773 776 776 776 780 772 774 775 750 729 739 722 706 704 699 693 686 685 683 683 683 684 686 688 693 699 706 711 716 723 728 735 742 747 750 756 768 776 783 789 793
767 757 764 768 769 763 770 768 761 752 738 730 726 731 703 694 695 691 691 688 685 681 677 677 678 681 683 688 693 700 706 712 719 725 732 740 744 751 758 767 774 781 786 790
768 770 763 764 764 767 770 775 760 762 753 760 729 713 699 690 697 693 690 686 683 680 675 671 671 676 678 683 689 696 702 709 716 722 728 737 745 752 759 767 774 779 785 788
756 764 756 760 767 764 762 760 767 768 752 733 709 712 696 688 688 684 683 681 680 676 672 668 667 671 675 679 684 694 702 709 716 722 728 735 744 753 757 766 772 778 783 787
755 762 760 767 763 746 763 766 764 755 741 726 712 691 675 686 687 687 686 683 680 676 672 668 665 669 674 679 684 693 702 709 716 722 728 737 745 752 757 766 772 778 783 787
751 755 756 745 733 738 736 739 742 748 738 733 718 686 677 681 680 687 682 681 678 675 671 667 665 670 675 678 684 692 701 709 716 721 729 739 746 753 759 767 773 779 783 788
748 758 751 730 738 737 740 728 728 742 741 725 722 680 681 681 678 678 676 676 674 672 670 671 671 674 677 680 685 694 703 711 716 723 732 742 747 753 761 768 774 780 784 788
744 741 743 727 719 724 736 725 732 736 725 702 698 683 682 681 678 676 675 676 671 668 672 674 674 675 678 683 689 698 705 712 719 728 735 740 749 757 764 770 775 780 785 789
743 746 743 732 728 727 724 719 719 722 707 709 675 679 673 674 675 674 674 671 668 668 674 676 676 677 682 688 695 700 708 715 722 730 736 744 752 759 765 772 777 781 786 789
738 738 740 732 721 713 713 707 706 706 703 692 688 680 671 673 672 676 678 676 671 671 674 677 680 683 687 693 699 703 712 720 726 732 740 747 754 762 768 774 778 782 786 789
741 742 740 717 703 698 699 696 695 696 694 689 687 668 670 675 679 685 679 674 672 671 674 679 683 687 690 697 702 709 717 725 733 738 745 751 758 764 771 776 779 783 787 789
732 742 743 724 711 692 681 688 688 687 682 679 673 670 677 682 686 683 675 671 672 669 675 681 686 690 695 702 709 715 723 730 736 744 750 756 762 768 774 777 781 784 787 789
723 730 727 719 708 686 675 682 684 682 669 665 665 665 672 680 681 670 677 676 674 671 678 684 690 695 701 708 714 720 728 736 742 749 755 760 765 771 775 779 782 785 788 788
720 724 727 720 712 688 676 679 682 679 665 665 664 661 670 677 678 665 681 678 674 678 684 690 697 703 708 716 721 726 734 742 748 753 758 764 769 773 776 780 783 786 787 787
722 728 721 717 710 685 676 679 680 668 674 668 666 659 665 670 673 684 685 686 687 688 692 697 703 708 715 721 726 733 741 747 753 758 762 767 772 776 779 782 784 786 786 785
700 707 712 704 702 688 677 677 672 669 670 673 671 670 675 680 686 690 691 693 694 696 701 704 709 717 723 728 733 740 747 753 757 762 766 771 775 778 781 783 785 785 785 784
699 692 686 688 674 672 673 670 669 673 673 673 672 673 678 685 692 696 698 700 703 705 707 712 714 722 731 736 738 743 753 757 761 766 771 775 778 780 782 784 784 784 784 783
692 693 688 686 671 671 669 669 672 676 675 676 676 677 680 686 694 698 702 705 708 712 716 719 722 728 734 741 747 752 757 763 766 770 775 778 780 781 782 783 784 784 783 782
686 692 683 680 670 667 669 672 675 679 680 679 681 682 686 690 696 701 705 709 713 716 721 725 728 734 741 747 753 758 763 766 770 774 777 778 780 781 783 783 783 783 782 781
683 674 673 667 670 669 669 678 681 680 684 685 685 690 694 696 700 704 709 714 719 723 728 732 737 741 748 754 758 763 766 769 771 774 776 779 781 782 782 782 782 781 780 779
Wind_Speed
7 7 11 13 14 9 4 7 11 9 7 15 17 24 21 21 23 22 22 22 22 22 16 20 20 17 15 14 12 12 15 19 24 27 23 22 21 22 22 22 25 25 22 20
5 11 12 7 10 12 13 15 16 14 12 12 19 31 23 23 28 26 24 25 24 23 22 20 22 21 17 16 14 14 18 21 25 24 22 20 21 17 20 27 26 24 23 19
9 3 0 13 11 12 15 15 13 15 15 17 21 26 15 9 14 19 25 27 27 26 24 23 23 27 21 18 17 18 20 22 24 23 22 21 19 20 22 26 25 23 21 17
9 9 7 7 11 12 14 8 12 13 10 6 2 11 14 13 14 13 13 14 18 21 24 24 23 26 25 22 18 19 22 24 25 26 25 29 29 28 22 31 29 24 19 16
3 6 10 12 11 13 8 5 8 9 11 11 16 7 13 4 12 9 11 15 16 16 18 19 23 28 28 24 21 22 23 25 27 27 26 26 23 22 28 34 30 24 16 15
10 2 5 7 8 13 2 6 9 10 9 7 21 14 17 19 15 14 11 13 14 13 13 16 19 20 23 20 21 23 25 26 26 29 27 26 28 30 33 28 27 21 17 14
5 15 6 7 9 8 10 5 3 4 6 9 9 10 20 17 10 14 17 19 15 10 10 11 13 14 20 24 26 27 29 28 28 28 29 26 28 38 41 33 28 23 18 15
4 4 15 11 16 4 16 14 6 7 11 14 5 11 16 20 18 19 19 13 16 14 14 14 13 12 18 24 27 28 29 28 29 28 28 25 32 32 34 29 25 20 18 15
5 5 2 6 7 11 5 9 15 15 15 9 12 18 19 22 17 16 19 15 10 13 14 13 13 11 17 22 26 28 28 27 27 28 27 28 30 28 27 24 22 20 17 16
2 4 6 3 7 11 14 1 5 6 7 17 11 17 14 7 11 13 12 7 12 13 16 14 10 10 16 21 25 25 25 26 26 25 27 32 26 24 28 25 22 19 17 16
8 4 4 5 12 13 10 8 6 6 7 7 14 13 3 2 4 2 7 9 12 14 16 14 9 10 16 20 24 25 25 26 25 26 31 26 27 27 27 23 21 19 17 15
12 5 7 15 13 13 16 16 19 7 8 6 9 20 12 14 12 8 9 11 14 13 15 12 6 11 17 22 25 25 24 25 26 31 30 25 27 26 24 21 19 17 16 13
11 4 4 4 2 6 9 18 20 12 8 17 10 17 1 7 10 11 15 16 14 13 14 7 5 10 14 22 24 23 23 23 28 30 28 27 27 25 22 21 19 16 15 12
10 6 7 10 14 6 7 13 17 16 10 17 20 29 22 20 22 21 15 13 12 16 10 4 7 11 14 19 22 22 22 27 28 26 28 27 25 23 21 19 18 16 13 11
7 6 11 20 22 21 23 23 17 20 26 16 26 21 19 16 13 13 14 15 13 18 8 4 7 11 13 19 20 23 24 25 27 26 26 25 23 22 21 19 17 14 11 9
6 5 3 13 20 22 22 21 17 20 25 26 26 28 24 20 15 11 11 11 13 16 6 6 9 12 14 19 21 24 25 24 25 26 25 24 24 21 19 18 16 13 10 7
5 1 3 8 13 19 8 7 12 8 19 22 20 26 14 10 11 12 10 15 17 12 7 9 12 12 16 20 23 24 24 24 23 25 24 24 22 21 18 16 14 11 8 5
5 3 3 7 11 4 6 6 10 12 17 19 23 23 15 9 12 14 17 15 9 6 9 11 12 16 20 23 24 26 25 24 25 24 23 22 21 20 17 15 12 9 6 3
15 8 3 3 4 10 4 5 4 3 4 5 19 19 15 8 10 13 4 4 3 9 11 12 16 20 22 23 25 26 24 24 24 23 22 20 19 18 15 13 10 6 3 1
9 11 5 1 4 3 3 5 1 1 3 11 11 14 8 5 5 4 8 8 10 11 15 18 20 22 24 22 24 26 24 23 22 21 20 18 17 15 13 11 7 4 1 1
4 2 6 5 5 7 3 4 2 5 6 15 12 1 9 8 2 5 8 10 9 12 18 21 21 21 22 22 23 24 22 21 21 21 20 17 15 14 11 9 6 3 1 2
7 6 5 4 4 4 3 2 3 4 7 6 5 2 7 7 7 8 9 9 11 13 16 20 22 21 20 21 24 23 22 21 21 20 19 16 13 11 9 7 4 2 3 4
4 5 2 5 3 2 3 7 5 5 6 2 1 3 10 11 7 8 8 11 11 13 17 20 25 24 20 19 23 25 21 21 20 19 17 14 12 10 7 5 4 3 4 5
5 4 3 2 3 5 5 4 2 5 4 1 2 9 9 12 11 13 12 11 12 15 17 21 24 23 21 20 19 23 21 19 19 18 15 12 10 8 6 5 4 4 5 6
1 6 5 5 8 8 5 3 3 5 5 8 9 10 13 15 13 13 12 13 12 17 19 19 22 22 22 22 21 19 18 18 18 15 13 10 8 7 5 4 3 3 4 6
5 5 3 2 1 3 3 4 4 7 6 8 13 14 13 15 15 15 13 14 17 18 20 21 22 23 21 21 19 17 15 15 16 14 10 8 7 5 4 2 3 5 5 7
Wind_Direction
195 208 216 222 221 253 291 267 261 260 267 300 272 272 270 273 271 265 261 262 260 257 252 258 258 253 249 250 240 221 203 193 182 176 169 169 170 170 170 172 171 169 164 152
179 234 239 244 233 239 249 259 264 278 272 270 285 284 284 274 264 260 257 255 254 254 253 246 252 250 243 239 229 212 199 189 183 183 177 167 165 157 164 167 165 163 157 149
209 105 121 211 215 229 240 253 270 274 295 286 284 283 265 263 263 256 253 256 259 255 251 248 241 242 240 235 222 207 197 187 186 178 164 153 144 149 149 155 155 157 154 146
241 240 209 195 223 227 262 251 253 261 279 275 59 291 297 287 278 256 261 250 253 253 246 246 242 238 232 229 219 206 192 184 180 173 169 169 162 156 163 160 161 158 154 144
159 178 196 220 230 216 235 201 242 254 258 283 253 245 277 277 285 267 262 257 271 270 252 241 238 235 231 225 204 196 188 182 176 175 178 174 162 158 154 162 159 155 148 147
256 190 212 222 218 210 102 226 249 262 264 249 253 229 273 275 284 273 266 250 286 278 250 243 248 238 229 217 194 185 184 181 177 174 177 176 162 153 146 151 151 151 153 146
223 229 199 195 222 211 217 202 258 231 207 244 283 237 246 285 267 269 260 280 292 286 275 259 242 235 221 196 187 185 182 178 177 175 175 175 167 164 159 161 157 160 158 154
232 219 196 195 217 213 212 209 222 257 268 283 242 236 241 258 261 262 257 273 291 294 287 265 251 237 215 197 186 183 180 175 174 171 166 169 165 159 158 162 163 162 158 154
182 258 206 206 203 207 181 218 243 268 266 259 254 257 264 257 251 259 261 270 298 314 332 288 255 221 204 189 184 184 178 173 170 166 159 161 160 158 160 157 157 153 151 149
178 262 214 165 204 238 222 246 211 202 248 248 227 245 259 270 269 270 264 267 310 329 333 321 253 210 197 184 176 177 175 168 161 154 157 160 160 162 152 152 151 149 148 149
185 212 155 165 207 209 200 227 218 267 253 262 276 273 242 228 320 268 309 310 320 325 333 320 257 203 182 170 167 166 166 161 158 154 157 150 149 149 145 147 145 146 145 148
198 223 240 237 245 228 235 239 226 233 229 230 268 265 280 283 295 273 323 323 327 329 331 321 231 181 171 162 160 159 158 159 154 151 151 147 147 143 141 141 143 144 144 145
174 211 283 259 192 217 236 240 233 239 255 247 262 267 63 185 259 295 302 316 317 335 344 328 187 173 170 161 152 150 149 145 140 139 142 146 143 141 140 141 141 142 141 142
175 220 232 259 281 315 244 250 228 216 238 256 242 265 266 269 278 291 304 309 308 344 338 292 191 169 161 153 142 138 133 136 134 141 142 136 138 138 138 139 138 137 138 140
212 244 242 259 270 275 269 266 241 221 231 241 261 267 273 286 285 297 302 304 318 337 301 222 179 155 150 140 132 123 125 129 135 136 132 132 133 133 133 134 133 132 134 138
217 275 282 279 268 263 269 262 247 235 236 246 260 269 272 288 290 300 310 303 315 320 259 188 163 152 145 137 129 123 126 129 134 132 129 130 130 131 131 131 131 130 132 138
197 214 300 271 315 309 272 260 252 234 240 243 249 249 279 298 325 303 300 295 295 297 196 167 156 146 136 133 127 123 126 131 131 126 127 129 129 127 130 131 130 132 138 141
189 158 220 290 310 287 319 217 247 256 252 241 248 256 264 300 280 267 274 294 293 196 156 151 140 131 127 128 126 129 131 129 125 125 125 127 128 127 131 130 131 131 137 150
225 231 268 278 298 278 324 352 309 264 328 297 251 256 248 254 275 287 2 299 257 131 139 136 134 126 125 126 126 124 122 123 123 124 125 127 130 131 131 130 129 128 146 171
215 223 218 304 295 310 337 340 2 166 2 354 324 247 231 222 292 58 22 39 94 108 126 125 124 123 123 126 126 121 123 123 122 125 124 127 128 128 127 125 124 129 132 326
133 166 228 236 260 277 272 295 246 343 330 348 346 108 177 198 344 51 65 63 79 110 123 124 125 119 122 126 123 118 120 117 122 123 121 120 120 118 119 120 119 117 51 340
191 187 210 205 242 288 173 231 315 343 328 324 16 77 106 113 80 77 85 89 95 104 112 120 116 115 119 126 124 119 115 123 122 121 118 115 115 115 114 116 115 89 20 349
224 228 280 228 259 0 245 268 292 313 296 312 183 156 147 137 133 118 99 101 103 110 114 117 114 114 118 123 123 118 124 127 124 120 117 117 115 113 112 109 86 44 11 351
220 201 248 286 205 256 268 269 315 351 317 42 164 138 147 132 128 120 117 111 109 112 117 123 117 111 109 113 116 123 129 130 125 120 121 123 120 114 96 82 62 34 4 348
345 165 219 251 283 288 262 289 36 63 71 104 117 124 129 127 124 119 112 109 110 112 113 112 110 112 114 119 119 125 130 128 124 125 125 119 109 99 92 82 57 17 5 342
194 219 223 287 117 291 15 82 110 105 100 116 120 120 123 128 126 123 114 115 116 113 113 107 109 112 117 120 122 125 130 134 130 123 118 115 111 101 81 52 4 330 337 333